Location: Spring Creek
(38.2870°N, 100.2160°W)
Time: 03:01:10
(UTC+00:00)

X-37B - Pass Details

Date: 08 May 2021
Orbit: 386 x 389 km, 45.0° (Epoch: 10 June)

Event Time Altitude Azimuth Distance (km) Brightness Sun altitude
Rises 04:21:17 0° 298° (WNW) 2,272 5.5 -26.0°
Reaches altitude 10° 04:23:30 10° 309° (NW) 1,415 4.4 -26.3°
Enters shadow 04:25:01 21° 329° (NNW) 923 3.2 -26.5°
